Regional Weather Roundup
Issued by NWS Charleston, WV

Home | Current Version | Previous Version | Graphics & Text | Print | Product List | Glossary On
Versions: 1 2 3 4 5 6 7 8 9 10 11 12 13 14 15 16 17 18 19 20 21 22 23 24 25 26 27 28 29 30 31 32 33 34 35 36 37 38 39 40 41 42 43 44 45 46 47 48 49 50
944
ASUS41 KRLX 270510
RWRRLX
West Virginia Regional Weather Roundup
National Weather Service Charleston WV
100 AM EDT THU APR 27 2017

Note: "fair" indicates few or no clouds below 12,000 feet with no
significant weather and/or obstructions to visibility.

WVZ003-270600-
Northern Panhandle of West Virginia

CITY           SKY/WX    TMP DP  RH WIND       PRES   REMARKS
WHEELING       CLEAR     66  53  63 SE8       29.69F
$$

WVZ009-270600-
Northwest West Virginia

CITY           SKY/WX    TMP DP  RH WIND       PRES   REMARKS
PARKERSBURG    CLEAR     61  54  77 E3        29.69S
$$

WVZ006-270600-
Western West Virginia

CITY           SKY/WX    TMP DP  RH WIND       PRES   REMARKS
HUNTINGTON     CLEAR     62  55  77 E6        29.65S
$$

WVZ015-270600-
West Central West Virginia

CITY           SKY/WX    TMP DP  RH WIND       PRES   REMARKS
CHARLESTON     CLEAR     61  55  81 N3        29.68S
$$

WVZ022-031-270600-
North Central West Virginia

CITY           SKY/WX    TMP DP  RH WIND       PRES   REMARKS
CLARKSBURG     CLEAR     58  54  86 CALM      29.71F
MORGANTOWN     CLEAR     68  55  63 S8        29.72F
$$

WVZ025-035-042-045-270600-
Southern West Virginia

CITY           SKY/WX    TMP DP  RH WIND       PRES   REMARKS
BECKLEY        CLEAR     65  55  70 SE10      29.80S
LOGAN          NOT AVBL
BLUEFIELD      CLEAR     64  53  67 S8        29.83F
LEWISBURG      CLEAR     63  57  79 CALM      29.84S
$$

WVZ047-270600-
Northern Mountains of West Virginia

CITY           SKY/WX    TMP DP  RH WIND       PRES   REMARKS
ELKINS         CLEAR     53  50  89 CALM      29.78S
$$

WVZ052-270600-
Eastern Panhandle of West Virginia

CITY           SKY/WX    TMP DP  RH WIND       PRES   REMARKS
MARTINSBURG    CLEAR     58  56  93 CALM      29.81S
PETERSBURG     CLEAR     57  57  97 CALM      29.80R
$$




USA.gov is the U.S. government's official web portal to all federal, state and local government web resources and services.